Location: HF.RADOM.PL
(51.4000°N, 21.1600°E)
Time: 23:07:41
(UTC+02:00)

NOAA 15 - Visible Passes

Search period start: 28 September 2021 00:00
Search period end: 08 October 2021 00:00
Orbit: 798 x 812 km, 98.7° (Epoch: 28 September)

Date Brightness Start Highest point End Pass type
(mag) Time Alt. Az. Time Alt. Az. Time Alt. Az.
28 Sep 4.8 19:22:14 10° S 19:27:29 77° WSW 19:32:48 10° NNW visible
28 Sep 7.5 21:05:46 10° WSW 21:08:11 13° W 21:10:36 10° WNW visible
29 Sep 4.6 18:57:05 10° SSE 19:02:18 70° ENE 19:07:35 10° NNW visible
29 Sep 7.0 20:38:42 10° SW 20:42:37 21° W 20:46:32 10° NW visible
30 Sep 6.3 20:12:27 10° SSW 20:17:08 32° W 20:21:52 10° NNW visible
01 Oct 5.5 19:46:40 10° S 19:51:45 50° W 19:56:55 10° NNW visible
02 Oct 4.8 19:21:13 10° SSE 19:26:29 79° WSW 19:31:49 10° NNW visible
02 Oct 7.4 21:04:38 10° WSW 21:07:09 13° W 21:09:41 10° NW visible
03 Oct 4.6 18:56:05 10° SSE 19:01:18 69° ENE 19:06:35 10° N visible
03 Oct 7.0 20:37:37 10° SW 20:41:35 21° W 20:45:35 10° NW visible
04 Oct 5.0 18:31:13 10° SE 18:36:12 45° ENE 18:41:14 10° N visible
04 Oct 6.3 20:11:25 10° SSW 20:16:07 33° W 20:20:53 10° NNW visible
05 Oct 5.5 19:45:38 10° S 19:50:45 51° W 19:55:56 10° NNW visible
06 Oct 4.7 19:20:12 10° SSE 19:25:29 80° WSW 19:30:49 10° NNW visible
06 Oct 7.4 21:03:31 10° WSW 21:06:08 14° W 21:08:46 10° NW visible
07 Oct 4.6 18:55:04 10° SSE 19:00:18 67° ENE 19:05:34 10° N visible
07 Oct 6.9 20:36:33 10° SW 20:40:34 22° W 20:44:36 10° NW visible
